| time (UTC) | temp F | wind direction | speed MPH | gust MPH | rain 1hr in | rain 24hr in | rain mn in | humidity % | barometer mb |
| 20260506073109 | 53 | 337 | 2.0 | 4.0 | 0.00 | 0.13 | 0.00 | 92 | 1018.9 |
| 20260506071554 | 53 | 317 | 2.0 | 4.0 | 0.00 | 0.13 | 0.00 | 92 | 1018.7 |
| 20260506061548 | 56 | 163 | 0.0 | 0.0 | 0.00 | 0.19 | 0.13 | 88 | 1018.1 |
| 20260506044549 | 56 | 161 | 0.0 | 0.0 | 0.00 | 0.23 | 0.13 | 85 | 1017.5 |
| 20260506043041 | 56 | 161 | 0.0 | 0.0 | 0.00 | 0.23 | 0.13 | 86 | 1017.3 |
| 20260506041549 | 56 | 161 | 0.0 | 0.0 | 0.00 | 0.23 | 0.13 | 86 | 1017.2 |
| 20260506040040 | 56 | 161 | 0.0 | 0.0 | 0.00 | 0.23 | 0.13 | 87 | 1017.0 |
| 20260506034539 | 56 | 161 | 0.0 | 0.0 | 0.00 | 0.23 | 0.13 | 87 | 1016.8 |
| 20260506033035 | 56 | 161 | 0.0 | 0.0 | 0.00 | 0.23 | 0.13 | 87 | 1016.7 |
| 20260506031534 | 56 | 161 | 0.0 | 1.0 | 0.00 | 0.23 | 0.13 | 87 | 1016.4 |
| 20260506030033 | 57 | 161 | 0.0 | 2.0 | 0.00 | 0.23 | 0.13 | 86 | 1016.3 |
| 20260506024536 | 57 | 161 | 0.0 | 2.0 | 0.00 | 0.23 | 0.13 | 86 | 1016.3 |
| 20260506023031 | 57 | 161 | 1.0 | 3.0 | 0.00 | 0.23 | 0.13 | 85 | 1016.2 |
| 20260506021531 | 57 | 134 | 0.0 | 2.0 | 0.00 | 0.23 | 0.13 | 84 | 1016.1 |
| 20260506020030 | 57 | 122 | 0.0 | 0.0 | 0.00 | 0.23 | 0.13 | 84 | 1016.2 |
| 20260506014530 | 58 | 134 | 0.0 | 3.0 | 0.00 | 0.23 | 0.13 | 83 | 1016.2 |
| 20260506013032 | 58 | 121 | 0.0 | 4.0 | 0.00 | 0.23 | 0.13 | 83 | 1016.0 |
| 20260506011548 | 58 | 148 | 0.0 | 4.0 | 0.00 | 0.23 | 0.13 | 82 | 1016.1 |
| 20260506010029 | 58 | 130 | 1.0 | 4.0 | 0.00 | 0.23 | 0.13 | 83 | 1016.0 |
| 20260506004539 | 58 | 102 | 0.0 | 3.0 | 0.00 | 0.23 | 0.13 | 83 | 1016.0 |
| 20260506003030 | 58 | 55 | 0.0 | 0.0 | 0.00 | 0.23 | 0.13 | 82 | 1016.1 |
| 20260506001530 | 58 | 351 | 0.0 | 0.0 | 0.00 | 0.23 | 0.13 | 82 | 1015.8 |
| 20260506000026 | 58 | 351 | 0.0 | 0.0 | 0.00 | 0.23 | 0.13 | 83 | 1015.8 |
| 20260505234528 | 58 | 351 | 0.0 | 0.0 | 0.00 | 0.23 | 0.13 | 83 | 1015.7 |
| 20260505233031 | 57 | 351 | 0.0 | 0.0 | 0.00 | 0.23 | 0.13 | 83 | 1015.7 |
| 20260505231529 | 57 | 351 | 0.0 | 0.0 | 0.00 | 0.23 | 0.13 | 83 | 1015.7 |
| 20260505230024 | 57 | 273 | 0.0 | 1.0 | 0.00 | 0.23 | 0.13 | 84 | 1015.6 |
| 20260505224522 | 57 | 307 | 0.0 | 2.0 | 0.00 | 0.23 | 0.13 | 83 | 1015.6 |
| 20260505223021 | 57 | 316 | 0.0 | 3.0 | 0.00 | 0.23 | 0.13 | 83 | 1015.7 |
| 20260505221520 | 57 | 341 | 0.0 | 3.0 | 0.00 | 0.23 | 0.13 | 85 | 1015.9 |
| 20260505220041 | 56 | 311 | 0.0 | 3.0 | 0.00 | 0.23 | 0.13 | 84 | 1016.1 |
| 20260505214526 | 56 | 250 | 0.0 | 3.0 | 0.00 | 0.25 | 0.13 | 87 | 1016.1 |
| 20260505213021 | 56 | 256 | 1.0 | 4.0 | 0.00 | 0.25 | 0.13 | 87 | 1016.1 |
| 20260505211517 | 55 | 240 | 1.0 | 6.0 | 0.00 | 0.25 | 0.13 | 88 | 1016.2 |
| 20260505210017 | 55 | 221 | 3.0 | 7.0 | 0.00 | 0.25 | 0.13 | 87 | 1016.2 |
| 20260505204518 | 56 | 222 | 2.0 | 7.0 | 0.00 | 0.25 | 0.13 | 85 | 1016.1 |
| 20260505203013 | 57 | 257 | 2.0 | 5.0 | 0.00 | 0.25 | 0.13 | 84 | 1016.0 |
| 20260505201512 | 56 | 229 | 2.0 | 6.0 | 0.00 | 0.25 | 0.13 | 86 | 1015.8 |
| 20260505200010 | 56 | 238 | 3.0 | 7.0 | 0.00 | 0.25 | 0.13 | 85 | 1016.1 |
| 20260505194517 | 56 | 257 | 1.0 | 4.0 | 0.00 | 0.25 | 0.13 | 85 | 1016.1 |
| 20260505193005 | 55 | 249 | 2.0 | 7.0 | 0.00 | 0.25 | 0.13 | 87 | 1016.2 |
| 20260505191505 | 55 | 256 | 1.0 | 6.0 | 0.00 | 0.25 | 0.13 | 87 | 1016.0 |
| 20260505190002 | 54 | 218 | 1.0 | 5.0 | 0.00 | 0.25 | 0.13 | 87 | 1016.1 |
| 20260505184600 | 54 | 232 | 1.0 | 4.0 | 0.00 | 0.25 | 0.13 | 88 | 1016.1 |
| 20260505183059 | 54 | 335 | 0.0 | 3.0 | 0.00 | 0.25 | 0.13 | 89 | 1016.0 |
| 20260505181555 | 53 | 270 | 1.0 | 4.0 | 0.00 | 0.25 | 0.13 | 90 | 1015.7 |
| 20260505180053 | 53 | 249 | 2.0 | 6.0 | 0.00 | 0.25 | 0.13 | 91 | 1015.7 |
| 20260505174551 | 52 | 226 | 0.0 | 4.0 | 0.00 | 0.25 | 0.13 | 91 | 1015.7 |
| 20260505173047 | 52 | 228 | 2.0 | 3.0 | 0.00 | 0.25 | 0.13 | 92 | 1015.5 |
| 20260505171644 | 52 | 305 | 1.0 | 4.0 | 0.00 | 0.25 | 0.13 | 92 | 1015.5 |
| 20260505170039 | 51 | 266 | 1.0 | 4.0 | 0.00 | 0.25 | 0.13 | 92 | 1015.5 |
| 20260505164553 | 51 | 240 | 1.0 | 5.0 | 0.00 | 0.26 | 0.13 | 94 | 1015.3 |
| 20260505163037 | 51 | 295 | 1.0 | 5.0 | 0.00 | 0.26 | 0.13 | 94 | 1015.4 |
| 20260505161547 | 51 | 311 | 1.0 | 3.0 | 0.00 | 0.26 | 0.13 | 95 | 1015.3 |
| 20260505153030 | 49 | 197 | 0.0 | 4.0 | 0.00 | 0.26 | 0.13 | 96 | 1015.3 |
| 20260505151529 | 49 | 261 | 1.0 | 4.0 | 0.00 | 0.26 | 0.13 | 96 | 1015.2 |
| 20260505124534 | 49 | 84 | 0.0 | 0.0 | 0.01 | 0.26 | 0.13 | 95 | 1014.3 |
| 20260505123021 | 49 | 22 | 0.0 | 0.0 | 0.01 | 0.26 | 0.13 | 95 | 1014.3 |
| 20260505121521 | 49 | 3 | 0.0 | 0.0 | 0.01 | 0.26 | 0.13 | 94 | 1014.3 |
| 20260505120023 | 49 | 3 | 0.0 | 0.0 | 0.01 | 0.26 | 0.13 | 95 | 1014.3 |
| 20260505114519 | 49 | 3 | 0.0 | 0.0 | 0.00 | 0.25 | 0.12 | 95 | 1014.1 |
| 20260505113018 | 49 | 3 | 0.0 | 0.0 | 0.01 | 0.25 | 0.12 | 95 | 1014.4 |
| 20260505111517 | 49 | 3 | 0.0 | 0.0 | 0.01 | 0.25 | 0.12 | 95 | 1014.5 |
| 20260505101512 | 49 | 356 | 0.0 | 0.0 | 0.03 | 0.24 | 0.11 | 95 | 1014.5 |
| 20260505100011 | 49 | 356 | 0.0 | 0.0 | 0.03 | 0.24 | 0.11 | 95 | 1014.7 |
| 20260505094512 | 49 | 356 | 0.0 | 0.0 | 0.04 | 0.23 | 0.10 | 95 | 1014.8 |
| 20260505093009 | 49 | 356 | 0.0 | 0.0 | 0.05 | 0.22 | 0.09 | 94 | 1014.8 |
| 20260505091507 | 49 | 356 | 0.0 | 0.0 | 0.05 | 0.21 | 0.08 | 94 | 1015.0 |
| 20260505090005 | 50 | 356 | 0.0 | 0.0 | 0.06 | 0.21 | 0.08 | 94 | 1014.9 |
| 20260505084515 | 50 | 357 | 0.0 | 2.0 | 0.04 | 0.19 | 0.06 | 94 | 1015.1 |
| 20260505083003 | 50 | 341 | 1.0 | 4.0 | 0.02 | 0.17 | 0.04 | 93 | 1015.1 |
| 20260505081504 | 50 | 25 | 1.0 | 4.0 | 0.02 | 0.16 | 0.03 | 93 | 1015.2 |